Location: Dammartin
(48.9032°N, 1.6195°E)
Time: 15:17:07
(UTC+00:00)

Cosmos 44 Rocket - Pass Details

Date: 03 February 2023
Orbit: 646 x 742 km, 65.1° (Epoch: 30 March)

Event Time Altitude Azimuth Distance (km) Brightness Sun altitude
Rises 19:43:54 0° 220° (SW) 2,956 7.0 -28.1°
Reaches altitude 10° 19:46:10 10° 222° (SW) 2,056 6.1 -28.5°
Enters shadow 19:49:08 40° 228° (SW) 980 4.2 -28.9°
